GFSNIL_sfc_temp_000.txt.gz
Temp
42 42 42 39 40 38 39 39 36 35 34 34 33 32 31 31 30 29 30 29 29 29
41 40 40 37 37 38 39 38 34 35 34 33 32 32 31 31 30 29 29 29 29 28
42 42 40 37 38 37 37 35 33 34 34 32 33 32 31 30 29 29 28 29 28 27
37 38 38 37 38 38 36 35 33 35 34 33 32 32 31 30 29 29 27 28 28 27
37 36 36 37 37 37 35 34 35 34 33 33 33 32 32 29 29 28 27 27 26 25
37 35 37 39 38 37 36 34 35 34 33 33 33 32 32 31 30 29 29 27 26 24
36 37 40 40 39 36 36 35 34 34 34 34 33 33 33 32 30 29 28 27 26 24
38 36 37 37 37 35 34 35 35 33 33 33 33 33 32 32 29 27 26 25 26 24
36 36 33 36 36 33 33 33 32 32 32 31 33 36 36 33 29 27 26 24 24 24
34 33 34 31 30 31 31 32 31 31 31 30 32 37 37 36 29 27 26 25 24 23
31 31 30 27 29 28 29 30 30 30 30 31 30 37 37 35 28 27 26 25 25 24
30 29 28 25 26 27 28 29 30 30 29 29 29 36 37 34 26 26 24 25 25 24
27 25 25 23 22 24 27 28 28 27 28 27 27 35 36 32 24 22 21 23 24 25
28 25 24 25 20 22 23 22 21 21 24 25 25 29 35 34 24 23 21 20 20 23

GFSNIL_sfc_temp_003.txt.gz
Temp
45 45 45 43 44 42 42 42 42 40 42 41 39 39 40 40 40 40 40 39 39 39
42 43 43 41 42 42 43 43 41 40 39 39 38 38 38 38 37 37 38 38 38 38
42 42 42 40 39 40 41 40 38 39 39 39 39 38 38 38 36 36 36 36 36 36
40 41 41 38 39 40 40 38 37 37 38 37 37 37 36 37 35 35 34 35 34 33
41 39 39 40 39 39 39 38 38 37 37 37 37 36 36 35 34 34 33 33 33 32
40 41 39 39 40 39 39 38 38 37 36 36 36 36 36 37 35 35 35 34 32 31
37 38 39 40 40 40 38 38 37 37 37 37 36 36 36 36 35 34 35 34 33 31
36 37 37 37 37 38 37 38 38 37 37 37 36 36 35 36 35 34 34 33 32 32
34 34 34 35 35 35 36 36 36 35 35 35 36 38 38 37 34 33 33 30 31 31
33 32 32 33 33 33 34 34 34 34 34 34 35 39 39 38 34 32 33 32 30 28
31 30 31 30 30 31 32 32 32 33 34 34 35 38 39 37 34 32 33 32 30 29
28 26 28 28 29 29 28 29 31 32 32 31 33 37 38 37 33 30 30 31 31 30
25 25 28 29 28 28 27 28 29 28 29 30 30 35 37 37 34 28 28 28 29 29
22 22 24 25 27 27 26 26 26 25 26 26 28 29 36 38 33 28 26 25 25 26

GFSNIL_sfc_temp_006.txt.gz
Temp
51 53 54 54 54 53 53 52 51 50 51 51 51 51 51 50 50 49 50 51 52 52
49 49 50 51 51 52 52 51 51 50 48 50 50 49 49 47 47 47 48 49 48 49
48 48 48 49 47 48 49 49 47 48 47 49 48 47 47 47 47 45 46 47 46 45
46 47 47 46 47 47 47 47 46 46 46 46 46 46 45 46 46 43 44 44 44 44
44 44 44 44 45 46 45 46 45 46 44 43 43 45 44 43 43 41 42 42 42 43
40 40 41 40 42 42 43 42 44 43 43 42 42 42 42 43 43 41 43 42 40 41
40 39 39 39 39 39 40 41 41 42 42 42 42 41 42 41 42 42 42 43 42 40
41 41 39 37 36 37 37 38 39 39 39 40 40 40 40 40 39 39 40 41 41 40
37 36 35 35 35 35 35 36 36 36 37 38 38 40 40 40 38 38 38 39 40 39
33 32 32 32 34 34 34 36 34 35 35 36 38 40 40 39 38 38 38 39 39 37
32 30 30 30 31 33 34 34 34 34 34 35 36 38 39 39 38 38 38 38 39 37
30 26 26 24 26 30 31 32 33 33 33 33 34 37 38 38 36 35 35 37 38 38
28 23 22 24 24 26 28 29 32 32 33 33 32 35 36 36 36 34 34 35 36 35
24 21 21 20 22 22 23 25 26 28 31 32 32 33 35 36 34 34 34 33 33 34

GFSNIL_sfc_temp_009.txt.gz
Temp
51 51 51 52 52 52 53 54 55 53 52 52 52 53 53 50 49 50 50 51 51 51
50 49 49 49 49 49 49 51 51 51 50 50 50 49 50 48 47 48 48 49 49 48
47 48 48 48 47 47 47 47 46 46 47 47 47 47 47 46 47 46 46 47 47 47
44 45 45 44 45 44 44 45 45 45 44 44 44 45 45 44 45 44 44 45 45 45
44 42 42 41 42 41 42 42 43 43 42 42 42 43 43 42 41 43 42 43 43 44
42 42 40 39 39 39 39 39 40 41 41 41 41 41 42 42 42 42 43 43 43 43
40 41 41 39 38 38 38 38 38 38 39 39 40 40 41 40 40 40 41 41 42 42
39 39 38 36 35 36 36 37 38 37 36 37 38 38 38 39 38 38 39 40 40 42
34 34 34 34 33 33 34 36 36 36 36 35 37 39 39 37 36 37 37 37 40 40
32 32 33 32 31 31 31 33 34 34 35 35 36 39 39 38 34 33 36 37 37 38
32 30 31 30 29 28 30 29 30 31 33 34 35 38 39 38 36 34 35 37 37 37
30 28 28 26 25 26 26 26 26 27 28 29 31 36 38 37 35 34 34 36 37 37
27 24 23 24 23 23 22 22 24 24 25 26 27 33 36 36 34 33 34 35 36 36
21 19 19 18 19 18 17 18 17 18 20 21 24 26 33 36 34 33 33 33 34 36

GFSNIL_sfc_temp_012.txt.gz
Temp
43 43 43 42 41 40 40 41 42 42 42 43 43 43 43 40 39 40 42 39 39 41
40 40 40 39 39 40 40 43 41 40 40 40 41 40 40 38 37 38 38 40 39 38
38 38 38 37 36 37 38 39 38 38 38 39 38 38 37 36 36 36 36 38 38 37
37 37 37 35 36 35 36 37 37 37 36 36 36 37 35 35 35 36 35 36 36 36
37 36 35 35 34 33 35 35 36 36 36 36 36 36 35 35 35 34 34 35 35 37
34 33 33 33 33 33 33 35 35 35 34 35 35 35 36 35 36 35 35 36 36 38
31 32 32 32 31 30 31 31 31 34 34 34 34 34 34 35 35 36 37 36 37 38
32 31 30 28 28 28 28 30 30 31 32 34 34 35 33 33 33 33 34 35 37 38
30 30 29 29 30 30 29 27 27 29 30 30 34 38 39 39 35 34 33 32 34 36
26 27 28 28 28 29 28 28 27 27 28 28 29 35 37 38 35 34 34 33 33 34
26 25 26 26 26 26 27 26 25 25 25 25 27 32 33 35 34 33 34 34 33 33
24 22 22 20 21 22 21 21 21 22 22 21 22 28 30 30 28 30 31 34 35 34
20 16 16 17 16 17 16 17 18 17 18 18 18 23 26 26 24 23 27 30 33 35
15 12 12 11 12 11 10 11 9 10 11 12 14 15 21 24 22 22 23 26 29 33

GFSNIL_sfc_temp_015.txt.gz
Temp
38 38 38 37 37 36 37 37 38 38 38 38 39 39 39 37 37 37 38 43 42 45
36 36 35 35 34 34 35 39 37 36 36 36 36 36 36 35 34 35 35 36 39 41
35 35 34 33 32 33 33 34 34 34 35 36 35 34 34 33 33 33 34 35 34 37
34 34 34 32 32 31 31 32 32 32 32 33 34 33 32 33 33 32 32 33 33 34
34 33 32 32 31 30 30 30 31 31 31 31 32 32 32 33 34 32 33 34 33 34
32 31 30 30 31 31 30 29 29 30 30 30 31 31 32 33 33 34 34 35 35 35
28 29 29 29 28 28 28 27 27 28 30 30 31 31 31 32 32 32 34 35 35 35
30 31 29 29 28 28 27 29 28 28 28 28 30 32 31 32 31 31 32 34 34 35
28 29 28 29 29 29 29 29 28 28 28 27 30 33 34 34 31 31 32 32 34 34
25 25 26 26 26 26 25 26 25 25 26 25 26 31 32 32 30 28 28 30 32 33
23 21 21 22 21 21 21 21 21 21 21 21 23 27 28 29 27 26 26 27 29 30
18 16 17 15 15 16 16 15 15 16 16 15 16 22 23 23 20 21 21 24 25 26
16 12 12 12 11 12 11 12 13 12 12 12 10 16 18 19 16 14 17 19 23 25
12 10 9 8 9 8 7 8 6 7 8 8 10 10 16 19 17 15 15 16 18 22

GFSNIL_sfc_temp_021.txt.gz
Temp
33 33 32 31 31 31 31 31 32 32 32 33 33 33 33 31 31 31 31 32 32 34
32 31 30 30 30 29 30 34 31 30 30 31 32 31 30 29 29 29 30 30 31 31
31 31 30 29 29 28 28 29 29 29 29 29 29 29 28 29 29 27 28 31 29 29
30 30 30 29 28 28 28 28 28 28 28 28 27 28 26 26 27 27 28 28 28 29
30 30 29 29 28 28 28 28 28 28 28 27 27 27 25 26 27 26 27 28 28 29
30 28 28 28 28 27 27 26 26 27 25 26 26 26 26 26 27 27 27 28 28 28
28 28 27 27 26 25 25 24 25 25 25 25 26 27 27 28 27 27 28 28 28 28
27 27 26 24 24 24 24 24 24 24 23 24 24 27 26 26 25 24 25 26 27 28
24 24 23 22 22 22 22 21 21 20 20 19 23 26 26 26 23 24 24 23 24 25
20 20 20 19 19 19 18 18 17 17 17 17 17 22 24 24 22 21 20 20 21 22
19 16 16 16 15 15 15 14 14 14 13 14 16 20 21 21 20 18 18 18 19 19
15 12 13 9 10 12 11 10 9 12 11 9 10 16 18 19 16 16 16 18 18 19
14 7 6 9 8 9 6 9 10 9 9 8 7 13 16 18 15 12 14 16 18 20
11 6 6 5 6 5 4 6 4 5 6 6 7 8 16 18 16 14 13 14 15 18

GFSNIL_sfc_temp_024.txt.gz
Temp
31 32 30 30 29 28 28 28 29 29 29 29 30 30 29 28 29 29 29 29 29 31
31 30 29 29 29 28 29 32 29 28 28 28 28 28 28 26 27 27 27 27 28 29
30 30 29 29 28 28 28 29 28 28 28 27 27 27 26 26 26 26 26 28 26 27
29 28 28 28 27 27 27 27 27 27 27 27 26 26 24 24 26 25 25 25 26 27
29 29 28 27 27 27 27 27 27 27 26 26 26 25 24 25 24 23 25 26 26 26
29 28 27 27 27 27 26 25 25 25 25 25 25 25 25 25 25 25 25 26 26 26
27 27 26 26 25 25 24 23 23 23 23 23 23 24 25 26 25 24 25 25 25 25
28 26 25 23 22 22 22 22 22 22 21 22 22 26 24 24 23 22 22 23 24 24
24 23 21 21 21 21 20 19 19 18 18 17 21 24 25 25 22 21 21 20 21 21
20 19 19 18 18 18 16 17 16 16 15 15 16 22 24 24 21 20 19 19 19 19
18 15 15 15 14 14 14 13 13 13 12 13 15 20 21 22 20 18 18 18 18 18
15 12 12 8 9 11 10 10 8 12 9 8 9 16 19 20 17 16 16 18 18 18
13 7 6 9 7 7 4 9 10 9 8 8 6 13 17 19 17 13 15 16 18 21
11 6 5 4 5 2 1 6 2 4 5 5 7 7 16 19 18 16 15 15 17 19

GFSNIL_sfc_temp_030.txt.gz
Temp
47 48 46 45 45 44 43 42 42 42 41 41 40 41 41 40 39 39 39 39 39 40
45 45 43 43 44 43 42 41 41 41 41 41 40 40 40 39 37 38 37 38 38 37
44 43 43 43 42 41 40 41 40 40 40 40 39 39 39 38 38 37 38 38 37 37
42 42 43 42 41 41 40 40 39 38 38 37 37 37 37 36 36 34 34 36 35 35
42 42 42 41 41 40 39 38 37 36 36 35 35 34 34 33 33 32 32 33 33 33
41 41 41 40 39 38 37 37 35 34 33 33 32 32 32 32 32 32 32 31 31 31
41 41 40 39 37 36 35 34 33 32 32 31 31 31 32 31 31 31 31 31 30 30
40 40 38 36 34 33 32 33 32 30 29 29 29 31 30 30 30 29 29 29 29 29
38 35 32 32 30 30 29 28 27 26 25 25 28 25 26 28 28 27 27 26 27 28
33 31 31 30 28 27 27 27 25 25 24 23 24 23 25 26 26 26 26 25 24 25
31 30 28 26 26 26 25 24 24 23 22 22 23 22 23 24 25 25 25 24 24 23
30 27 26 23 24 24 23 22 21 20 19 17 19 19 22 23 23 23 22 24 24 24
28 25 23 23 21 22 20 20 20 19 18 16 14 18 20 22 23 21 22 23 25 25
25 22 22 21 20 18 17 17 15 14 16 14 14 16 19 21 22 22 22 23 24 25

GFSNIL_sfc_temp_033.txt.gz
Temp
52 52 50 49 48 46 45 44 44 44 44 43 43 43 43 41 39 39 39 39 39 38
50 49 47 47 46 45 44 43 43 43 43 43 42 41 42 39 38 39 39 39 38 38
47 47 46 46 44 44 42 42 42 42 42 41 41 40 40 38 38 37 37 38 36 36
44 45 45 44 43 43 42 42 41 40 40 39 38 37 37 37 36 34 35 36 35 34
44 44 43 43 43 42 41 41 39 39 38 37 37 36 35 34 34 33 33 33 33 33
42 42 42 42 41 41 40 39 37 37 36 35 35 34 34 34 33 33 32 32 32 31
42 42 43 41 40 39 39 37 36 35 34 34 33 33 33 33 32 32 32 32 32 31
42 42 42 38 37 36 35 36 35 34 32 32 31 32 33 32 31 30 30 31 31 30
40 38 35 34 33 32 31 31 30 29 29 28 31 31 28 28 28 29 28 28 29 29
36 33 32 32 31 30 30 30 29 28 28 27 28 29 27 28 27 27 27 27 27 27
33 31 31 30 29 29 29 28 27 27 26 26 26 28 27 26 25 26 27 26 26 25
32 30 29 27 27 28 27 26 25 25 22 21 22 26 25 25 24 24 24 26 26 25
32 29 28 27 26 26 26 25 25 23 22 20 18 22 24 24 23 21 23 24 26 27
29 28 28 26 26 23 22 22 20 19 20 19 18 17 23 24 22 22 22 22 24 26

GFSNIL_sfc_temp_036.txt.gz
Temp
43 41 40 40 38 36 35 35 36 36 35 35 36 35 34 31 31 30 30 30 30 31
41 40 39 39 37 35 35 37 36 35 34 34 34 34 32 30 29 30 30 30 30 29
40 39 38 37 35 35 34 35 34 34 34 33 32 32 31 29 29 28 28 30 28 28
37 38 37 35 34 33 33 34 33 33 32 31 30 30 29 29 29 28 28 28 28 27
36 35 35 34 34 33 33 32 32 32 31 30 30 30 29 28 28 27 27 27 27 26
34 33 34 33 33 32 31 31 31 30 29 29 29 29 29 29 28 28 27 27 26 26
33 33 33 32 32 31 31 29 29 29 29 29 29 29 29 29 28 27 28 28 27 26
33 33 32 31 30 30 30 30 29 28 28 28 28 30 28 28 26 26 26 26 28 27
33 32 30 30 29 28 28 27 27 27 26 25 29 32 32 29 26 26 26 25 26 26
32 30 29 29 28 27 25 26 24 24 24 24 24 31 32 30 27 25 24 25 26 26
30 29 26 26 25 24 25 24 23 23 23 23 24 31 31 29 25 24 24 24 25 24
29 26 25 24 23 23 23 21 20 21 19 19 19 30 30 28 22 22 22 25 25 24
27 26 26 25 22 22 19 22 22 21 18 17 14 26 28 27 21 13 19 21 25 27
26 27 26 23 19 20 18 20 16 17 14 13 15 15 25 27 22 19 17 18 20 24

GFSNIL_sfc_temp_042.txt.gz
Temp
41 40 40 38 37 36 34 34 33 32 32 32 32 31 30 30 29 28 28 28 29 29
40 39 38 36 35 34 32 34 32 32 31 31 31 31 30 29 27 27 27 27 28 28
40 39 37 35 33 33 32 32 31 31 30 30 30 30 29 27 27 27 26 27 27 27
36 36 36 34 33 33 32 32 31 31 30 30 29 29 27 27 27 27 27 26 27 26
36 35 34 34 33 32 33 31 31 31 30 29 29 28 27 27 27 27 27 27 26 26
34 34 34 33 32 32 31 30 30 30 29 29 28 28 28 28 28 28 28 27 26 26
33 34 33 32 31 32 31 30 29 29 29 29 29 29 28 29 28 27 27 27 27 26
33 33 31 31 31 31 31 31 30 29 29 28 28 30 28 29 27 26 26 26 27 26
32 32 32 31 31 30 30 28 28 28 27 26 30 34 35 30 27 26 26 25 25 25
32 32 31 31 30 29 29 29 28 27 26 25 25 35 36 35 26 25 24 24 25 25
32 32 31 30 30 29 29 28 26 26 25 25 25 34 36 36 26 24 24 23 23 24
33 32 29 29 29 29 27 25 23 24 22 23 21 34 35 34 24 24 23 24 23 23
33 32 30 31 29 27 26 27 25 24 22 21 19 31 34 34 24 17 21 21 24 26
32 32 31 30 27 24 24 22 21 21 18 18 18 19 33 34 23 22 19 19 19 22

GFSNIL_sfc_temp_045.txt.gz
Temp
44 44 42 40 38 37 36 33 32 32 32 32 32 32 31 31 30 29 29 29 29 29
43 42 41 36 36 34 32 34 31 31 31 31 31 31 30 30 28 28 28 28 28 28
41 41 40 36 34 33 32 33 32 31 31 31 30 30 30 28 28 28 27 27 27 27
36 38 36 36 34 33 33 32 32 32 31 31 30 29 28 28 27 28 27 26 27 27
36 35 35 34 34 33 33 32 32 31 31 31 30 29 29 28 28 27 27 27 27 26
35 35 34 33 33 33 32 31 31 31 31 30 30 29 28 29 28 28 28 27 26 26
34 35 35 34 32 33 32 31 31 31 31 31 30 30 30 29 28 28 28 28 27 26
34 35 33 31 32 32 31 32 32 30 30 30 31 31 30 30 27 27 26 26 27 26
33 33 32 32 32 31 31 30 30 29 29 29 32 35 36 31 28 27 26 25 24 25
33 32 32 32 31 31 30 30 29 29 29 29 30 36 37 36 28 26 25 25 26 25
33 32 31 31 30 30 29 28 29 28 29 29 28 36 37 36 27 25 25 25 25 24
33 31 30 29 28 28 28 26 26 28 26 25 27 35 37 36 26 26 25 25 24 23
33 32 30 30 28 28 28 27 26 26 26 25 27 33 36 35 25 22 24 23 24 26
32 31 31 29 28 27 27 26 25 25 25 24 24 24 35 36 26 26 22 22 22 23

GFSNIL_sfc_temp_048.txt.gz
Temp
44 45 45 43 41 41 40 36 34 33 33 32 32 32 32 33 31 32 31 30 30 30
44 44 43 42 41 39 38 36 32 32 32 31 31 32 32 32 29 29 29 29 29 29
42 44 43 41 39 37 37 34 31 31 31 30 30 31 31 29 28 29 27 28 28 28
41 42 40 39 38 38 36 32 32 32 32 31 31 30 30 29 29 29 28 27 28 27
38 39 39 39 38 36 36 33 33 32 32 31 31 30 30 30 29 28 28 28 27 26
35 37 38 37 37 36 34 33 31 32 32 31 31 30 31 31 30 29 30 29 27 26
35 36 37 37 35 35 33 32 31 32 32 32 31 32 32 32 30 30 30 29 28 26
35 36 37 35 34 34 32 33 33 31 31 31 32 32 32 32 30 29 28 27 28 27
34 34 34 33 33 32 32 31 31 30 30 30 32 36 36 32 30 29 28 26 26 27
33 32 33 33 32 32 31 31 30 30 30 30 30 37 37 36 29 29 28 27 27 27
32 32 32 31 32 32 31 30 30 29 30 30 30 37 38 35 28 28 28 27 27 27
33 31 31 31 31 31 29 29 28 27 27 27 27 37 35 33 29 28 27 27 27 26
33 32 31 31 30 29 29 28 27 27 27 27 27 34 34 33 29 26 26 26 27 27
31 32 32 30 29 28 27 26 26 26 25 26 27 27 33 35 29 29 27 26 24 25